W0NLK-13 Weather Reports


Display with metric or nautical units.
time (UTC)temp
F
wind
direction
speed
MPH
gust
MPH
rain 1hr
in
rain 24hr
in
rain mn
in
humidity
%
barometer
mb
20260906213311 94 107 5.0 14.0 0.00 0.00 0.00
20260906212809 94 113 8.0 13.0 0.00 0.00 0.00
20260906211807 93 114 6.0 11.0 0.00 0.00 0.00
20260906210804 94 93 5.0 11.0 0.00 0.00 0.00
20260906210304 94 99 4.0 10.0 0.00 0.00 0.00
20260906203758 93 177 0.0 9.0 0.00 0.00 0.00
20260906203255 94 160 3.0 13.0 0.00 0.00 0.00
20260906202253 93 169 3.0 8.0 0.00 0.00 0.00
20260906201752 93 87 5.0 13.0 0.00 0.00 0.00
20260906201251 93 103 3.0 13.0 0.00 0.00 0.00
20260906200749 92 94 5.0 10.0 0.00 0.00 0.00
20260906200246 93 107 2.0 9.0 0.00 0.00 0.00
20260906195746 92 119 2.0 6.0 0.00 0.00 0.00
20260906195245 92 136 1.0 8.0 0.00 0.00 0.00
20260906194743 91 103 2.0 11.0 0.00 0.00 0.00
20260906194241 93 76 8.0 9.0 0.00 0.00 0.00
20260906193237 91 109 7.0 9.0 0.00 0.00 0.00
20260906192235 92 104 3.0 7.0 0.00 0.00 0.00
20260906191734 92 125 3.0 7.0 0.00 0.00 0.00
20260906190730 90 93 1.0 10.0 0.00 0.00 0.00
20260906190226 91 184 1.0 8.0 0.00 0.00 0.00
20260906185224 90 124 6.0 11.0 0.00 0.00 0.00
20260906184222 90 80 6.0 13.0 0.00 0.00 0.00
20260906183722 90 140 5.0 6.0 0.00 0.00 0.00
20260906182719 89 235 2.0 10.0 0.00 0.00 0.00
20260906182218 90 161 2.0 13.0 0.00 0.00 0.00
20260906181716 89 85 8.0 10.0 0.00 0.00 0.00
20260906180714 89 84 8.0 10.0 0.00 0.00 0.00
20260906175710 90 104 4.0 10.0 0.00 0.00 0.00
20260906175206 88 142 1.0 7.0 0.00 0.00 0.00
20260906174705 88 84 3.0 7.0 0.00 0.00 0.00
20260906174202 86 119 4.0 5.0 0.00 0.00 0.00
20260906173700 87 82 2.0 9.0 0.00 0.00 0.00
20260906173157 86 112 5.0 9.0 0.00 0.00 0.00
20260906172153 86 101 2.0 9.0 0.00 0.00 0.00
20260906171650 86 55 5.0 7.0 0.00 0.00 0.00
20260906171150 86 190 1.0 4.0 0.00 0.00 0.00
20260906170648 86 155 3.0 7.0 0.00 0.00 0.00
20260906170146 86 74 4.0 8.0 0.00 0.00 0.00
20260906165646 85 126 2.0 10.0 0.00 0.00 0.00
20260906164640 85 82 9.0 10.0 0.00 0.00 0.00
20260906163639 85 117 4.0 9.0 0.00 0.00 0.00
20260906163139 85 58 3.0 8.0 0.00 0.00 0.00
20260906162638 85 80 5.0 8.0 0.00 0.00 0.00
20260906162136 84 114 3.0 8.0 0.00 0.00 0.00
20260906161133 83 96 5.0 8.0 0.00 0.00 0.00
20260906160631 83 80 2.0 7.0 0.00 0.00 0.00
20260906160128 82 92 4.0 8.0 0.00 0.00 0.00
20260906155626 82 59 2.0 8.0 0.00 0.00 0.00
20260906155125 81 49 3.0 7.0 0.00 0.00 0.00
20260906154624 80 317 3.0 5.0 0.00 0.00 0.00
20260906154123 80 65 4.0 7.0 0.00 0.00 0.00
20260906153620 80 329 2.0 5.0 0.00 0.00 0.00
20260906152613 79 352 5.0 5.0 0.00 0.00 0.00
20260906151105 78 312 3.0 6.0 0.00 0.00 0.00
20260906150604 78 308 2.0 6.0 0.00 0.00 0.00
20260906145057 76 310 3.0 6.0 0.00 0.00 0.00
20260906144054 75 316 4.0 7.0 0.00 0.00 0.00
20260906143552 75 317 3.0 6.0 0.00 0.00 0.00
20260906143051 74 313 6.0 7.0 0.00 0.00 0.00
20260906142047 74 296 3.0 6.0 0.00 0.00 0.00
20260906141547 74 313 2.0 6.0 0.00 0.00 0.00
20260906141046 73 316 1.0 8.0 0.00 0.00 0.00
20260906140040 72 268 3.0 5.0 0.00 0.00 0.00
20260906135035 71 336 3.0 3.0 0.00 0.00 0.00
20260906133529 69 337 0.0 1.0 0.00 0.00 0.00
20260906132524 68 336 1.0 4.0 0.00 0.00 0.00
20260906132022 67 47 0.0 3.0 0.00 0.00 0.00
20260906131518 67 47 1.0 5.0 0.00 0.00 0.00
20260906131018 67 356 2.0 4.0 0.00 0.00 0.00
20260906130014 67 273 0.0 1.0 0.00 0.00 0.00
20260906125512 66 272 0.0 2.0 0.00 0.00 0.00
20260906124006 64 272 0.0 2.0 0.00 0.00 0.00
20260906123504 65 272 1.0 2.0 0.00 0.00 0.00
20260906121956 65 275 1.0 4.0 0.00 0.00 0.00
20260906121456 65 277 3.0 4.0 0.00 0.00 0.00
20260906120954 64 276 1.0 2.0 0.00 0.00 0.00
20260906120454 64 277 0.0 0.0 0.00 0.00 0.00
20260906115952 64 276 0.0 0.0 0.00 0.00 0.00
20260906115449 64 277 0.0 3.0 0.00 0.00 0.00
20260906114946 63 277 0.0 3.0 0.00 0.00 0.00
20260906113942 64 275 1.0 1.0 0.00 0.00 0.00
20260906113440 66 277 0.0 2.0 0.00 0.00 0.00
20260906112937 67 276 1.0 4.0 0.00 0.00 0.00
20260906111427 66 261 2.0 5.0 0.00 0.00 0.00
20260906110926 66 231 2.0 4.0 0.00 0.00 0.00
20260906110424 66 230 1.0 4.0 0.00 0.00 0.00
20260906105922 65 230 3.0 3.0 0.00 0.00 0.00
20260906105421 64 228 0.0 1.0 0.00 0.00 0.00
20260906104917 64 228 0.0 4.0 0.00 0.00 0.00
20260906103909 63 204 0.0 0.0 0.00 0.00 0.00
20260906102905 61 203 0.0 0.0 0.00 0.00 0.00
20260906102402 62 203 0.0 0.0 0.00 0.00 0.00
20260906101900 63 203 0.0 0.0 0.00 0.00 0.00
20260906101357 62 204 0.0 1.0 0.00 0.00 0.00
20260906100853 63 203 0.0 0.0 0.00 0.00 0.00
20260906100351 64 204 0.0 1.0 0.00 0.00 0.00
20260906095847 64 203 0.0 2.0 0.00 0.00 0.00
20260906094345 65 278 0.0 0.0 0.00 0.00 0.00
20260906092336 68 278 0.0 1.0 0.00 0.00 0.00
20260906091835 69 277 0.0 2.0 0.00 0.00 0.00
20260906091329 70 277 0.0 2.0 0.00 0.00 0.00
20260906090828 70 278 0.0 3.0 0.00 0.00 0.00
20260906090324 69 278 0.0 0.0 0.00 0.00 0.00
20260906085823 69 278 0.0 2.0 0.00 0.00 0.00
20260906084818 71 278 0.0 2.0 0.00 0.00 0.00
20260906083308 68 268 0.0 0.0 0.00 0.00 0.00
20260906082305 70 267 0.0 3.0 0.00 0.00 0.00
20260906081802 70 267 0.0 4.0 0.00 0.00 0.00
20260906081257 70 271 3.0 4.0 0.00 0.00 0.00
20260906080756 69 285 2.0 4.0 0.00 0.00 0.00
20260906080252 68 310 0.0 2.0 0.00 0.00 0.00
20260906075246 68 310 0.0 0.0 0.00 0.00 0.00
20260906074744 68 310 0.0 0.0 0.00 0.00 0.00
20260906074241 68 310 0.0 0.0 0.00 0.00 0.00
20260906073739 68 311 0.0 0.0 0.00 0.00 0.00
20260906072232 68 309 0.0 0.0 0.00 0.00 0.00
20260906071730 68 310 0.0 0.0 0.00 0.00 0.00
20260906071227 68 310 0.0 0.0 0.00 0.00 0.00
20260906070725 68 311 0.0 0.0 0.00 0.00 0.00
20260906070223 68 311 0.0 0.0 0.00 0.00 0.00
20260906065719 68 310 0.0 0.0 0.00 0.00 0.00
20260906064212 68 309 0.0 2.0 0.00 0.00 0.00
20260906063710 68 309 0.0 2.0 0.00 0.00 0.00
20260906063209 69 330 0.0 2.0 0.00 0.00 0.00
20260906062707 71 330 0.0 2.0 0.00 0.00 0.00
20260906062205 72 330 0.0 0.0 0.00 0.00 0.00
20260906061703 72 330 0.0 1.0 0.00 0.00 0.00
20260906061202 71 330 0.0 3.0 0.00 0.00 0.00
20260906060659 71 330 1.0 2.0 0.00 0.00 0.00
20260906060158 72 330 1.0 1.0 0.00 0.00 0.00
20260906055655 72 331 0.0 0.0 0.00 0.00 0.00
20260906055152 72 330 0.0 0.0 0.00 0.00 0.00
20260906054650 73 331 0.0 0.0 0.00 0.00 0.00
20260906054148 74 331 0.0 0.0 0.00 0.00 0.00
20260906053140 72 330 0.0 0.0 0.00 0.00 0.00
20260906052638 72 331 0.0 2.0 0.00 0.00 0.00
20260906052136 74 331 0.0 6.0 0.00 0.00 0.00
20260906051131 73 321 2.0 4.0 0.00 0.00 0.00
20260906050628 72 321 0.0 2.0 0.00 0.00 0.00
20260906050126 72 321 0.0 2.0 0.00 0.00 0.00
20260906045623 72 322 0.0 3.0 0.00 0.00 0.00
20260906045121 72 337 0.0 0.0 0.00 0.00 0.00
20260906044116 73 336 0.0 0.0 0.00 0.00 0.00
20260906043614 74 336 0.0 0.0 0.00 0.00 0.00
20260906042612 73 336 0.0 3.0 0.00 0.00 0.00
20260906040601 76 336 1.0 2.0 0.00 0.00 0.00
20260906040059 76 336 0.0 3.0 0.00 0.00 0.00
20260906034550 77 321 0.0 3.0 0.00 0.00 0.00
20260906034048 78 320 1.0 5.0 0.00 0.00 0.00
20260906032043 79 79 2.0 8.0 0.00 0.00 0.00
20260906031038 79 259 0.0 1.0 0.00 0.00 0.00
20260906030537 80 257 0.0 2.0 0.00 0.00 0.00
20260906030036 80 258 0.0 1.0 0.00 0.00 0.00
20260906025535 80 258 1.0 3.0 0.00 0.00 0.00
20260906024024 79 323 0.0 1.0 0.00 0.00 0.00
20260906023522 79 323 0.0 0.0 0.00 0.00 0.00
20260906023017 78 323 0.0 0.0 0.00 0.00 0.00
20260906022514 78 328 0.0 2.0 0.00 0.00 0.00
20260906020506 78 0 0.0 1.0 0.00 0.00 0.00
20260906015457 78 0 0.0 0.0 0.00 0.00 0.00
20260906014956 79 0 0.0 0.0 0.00 0.00 0.00
20260906013954 79 0 0.0 0.0 0.00 0.00 0.00
20260906013452 80 0 0.0 1.0 0.00 0.00 0.00
20260906012951 81 0 0.0 0.0 0.00 0.00 0.00
20260906012449 82 0 0.0 1.0 0.00 0.00 0.00
20260906010946 83 0 0.0 3.0 0.00 0.00 0.00
20260906005940 84 42 0.0 6.0 0.00 0.00 0.00
20260906005436 84 353 2.0 6.0 0.00 0.00 0.00
20260906004934 84 350 1.0 2.0 0.00 0.00 0.00
20260906004432 85 351 0.0 1.0 0.00 0.00 0.00
20260906003429 86 350 1.0 3.0 0.00 0.00 0.00
20260906002928 87 352 1.0 3.0 0.00 0.00 0.00
20260906002423 87 351 1.0 6.0 0.00 0.00 0.00
20260906001919 87 332 3.0 7.0 0.00 0.00 0.00
20260906001418 88 48 2.0 10.0 0.00 0.00 0.00
20260906000915 88 69 8.0 11.0 0.00 0.00 0.00
20260905235912 89 92 7.0 9.0 0.00 0.00 0.00
20260905235411 89 160 3.0 11.0 0.00 0.00 0.00
20260905233907 90 150 7.0 11.0 0.00 0.00 0.00
20260905233406 91 167 3.0 10.0 0.00 0.00 0.00
20260905232403 92 189 4.0 6.0 0.00 0.00 0.00
20260905231903 92 196 3.0 8.0 0.00 0.00 0.00
20260905230901 93 217 2.0 10.0 0.00 0.00 0.00
20260905230400 91 179 3.0 12.0 0.00 0.00 0.00
20260905225358 94 184 4.0 11.0 0.00 0.00 0.00
20260905224356 93 162 7.0 10.0 0.00 0.00 0.00
20260905223855 93 141 5.0 8.0 0.00 0.00 0.00
20260905222349 94 126 2.0 13.0 0.00 0.00 0.00
20260905221848 94 76 11.0 11.0 0.00 0.00 0.00
20260905220845 94 255 2.0 8.0 0.00 0.00 0.00
20260905215342 94 111 3.0 9.0 0.00 0.00 0.00
20260905214841 94 148 2.0 5.0 0.00 0.00 0.00
20260905214340 94 231 4.0 8.0 0.00 0.00 0.00
20260905213838 95 161 2.0 5.0 0.00 0.00 0.00